DELTA 1 DEB, 14564

Orbit data source: Space-Track

DELTA 1 DEB, 14564 is space debris in LEO originally from a launch on Thu, 14 Jul 1977 UTC launched from the Air Force Eastern Test Range (AFETR). Debris objects in space refer to the collection of defunct objects orbiting the Earth. Examples of debris include non-operational satellites, rocket bodies, and fragments generated from explosions, collisions, or faulty payload assembly.

Loading next visibility...
Identifier
14564, 1977-065FS
Orbit
LEO
Country
Flag of USUS
Related business
Manufacturer
Unknown
Mission
Spacecraft
Bus & Motor
Unknown
Mass
Unknown
Launch date (UTC)
1977-07-14 (49 years ago)
Launch vehicle
Unknown
Launch site
Air Force Eastern Test Range (AFETR)
Object type
Payload
Rocket body
Debris
Shape & HBR
Unknown shape, 0.1 m
Radar Cross Section
Medium (>0.1 m² and <1 m²)

Expand to show TLE details & history
Last TLE update: 1 day ago

TLE from 1 day ago
0 DELTA 1 DEB
1 14564U 77065FS  26131.99339213  .00000572  00000-0  41657-3 0  9997
2 14564  28.7055  20.2006 0733784 300.9687  52.0758 13.03831417 66475
Epoch: 2026-05-11T23:50Z
TLE epoch observation values (Epoch: 2026-05-11T23:50:29.080Z)
Latitude
-0°
Longitude
152.80528°
Altitude
929.064 km
Speed
7.541 km/s
True Right ascension
01h 20m 48s
True Declination
0° 00' 00"
Sunlit
Object was in daylight at epoch
Visualization orbit readout
Latitude
Unknown
Longitude
Unknown
Altitude
Unknown
Speed
Unknown
Apparent Right ascension
Unknown
Apparent Declination
Unknown
Sunlit
N/A
Visualization observer readout
Local Sidereal Time
18:20:10
Azimuth
Unknown
Elevation
Unknown
Doppler factor
Unknown
Orbital elements
Apogee altitude
1,810.738 km
Perigee altitude
691.12 km
Semi-major axis
7,629.066 km
Eccentricity
0.07338
Inclination
28.7055°
RAAN
20.2006°
Arg. of periapsis
300.9687°
True anomaly
59.08626°
Mean anomaly
52.0758°
Eccentric anomaly
55.54241°
Mean motion
3.25714 °/min
Orbital period
110.53 mins
BSTAR
0.00041657
Loading maneuver chart data...
Computing Atmospheric mass density...

Documentation

Showing up to 5 results
|